DW4611 Weather Reports


Display with metric or nautical units.
time (UTC)temp
F
wind
direction
speed
MPH
gust
MPH
rain 1hr
in
rain 24hr
in
rain mn
in
humidity
%
barometer
mb
20190119140120 40 148 0.0 2.0 0.01 0.06 0.05 70 1014.4
20190119134654 40 158 0.0 4.0 0.01 0.06 0.05 70 1014.4
20190119133138 40 141 0.0 1.0 0.00 0.05 0.04 70 1014.5
20190119131631 39 126 0.0 2.0 0.00 0.05 0.04 73 1014.6
20190119130148 39 121 0.0 0.0 0.00 0.05 0.04 74 1014.8
20190119124629 39 142 0.0 0.0 0.00 0.05 0.04 72 1015.0
20190119123142 39 90 0.0 0.0 0.00 0.05 0.04 74 1015.2
20190119121607 39 90 0.0 0.0 0.00 0.05 0.04 77 1015.4
20190119120139 39 90 0.0 0.0 0.00 0.05 0.04 77 1015.7
20190119114614 39 90 0.0 0.0 0.00 0.05 0.04 78 1016.0
20190119113131 39 90 0.0 0.0 0.00 0.05 0.04 78 1016.2
20190119111615 38 90 0.0 0.0 0.00 0.05 0.04 80 1016.4
20190119110139 38 90 0.0 0.0 0.00 0.05 0.04 80 1016.7
20190119104632 37 90 0.0 0.0 0.00 0.05 0.04 81 1016.8
20190119103110 37 90 0.0 0.0 0.00 0.05 0.04 82 1016.9
20190119101603 37 90 0.0 0.0 0.00 0.05 0.04 84 1017.0
20190119100141 37 89 0.0 1.0 0.00 0.05 0.04 86 1017.1
20190119094650 36 140 0.0 0.0 0.00 0.05 0.04 88 1017.0
20190119093106 36 140 0.0 0.0 0.00 0.05 0.04 89 1016.8
20190119091547 36 140 0.0 0.0 0.00 0.05 0.04 90 1016.7
20190119090127 36 131 0.0 1.0 0.00 0.05 0.04 91 1016.7
20190119084547 36 146 0.0 1.0 0.00 0.05 0.04 92 1016.6
20190119083036 36 140 0.0 0.0 0.01 0.05 0.04 92 1016.5
20190119081547 36 142 0.0 0.0 0.01 0.05 0.04 92 1016.4
20190119080051 36 144 0.0 1.0 0.01 0.05 0.04 92 1016.3
20190119074538 36 145 0.0 1.0 0.01 0.05 0.04 92 1016.2
20190119073030 36 161 0.0 1.0 0.00 0.04 0.03 91 1016.2
20190119071536 36 150 0.0 1.0 0.00 0.04 0.03 90 1016.1
20190119070038 37 157 0.0 2.0 0.00 0.04 0.03 89 1016.1
20190119064545 37 139 0.0 1.0 0.00 0.04 0.03 87 1016.0
20190119063029 37 102 0.0 2.0 0.00 0.04 0.03 84 1016.0
20190119061523 38 153 0.0 1.0 0.00 0.04 0.03 82 1016.0
20190119060033 38 157 0.0 1.0 0.00 0.04 0.03 82 1015.7
20190119054531 38 130 0.0 1.0 0.00 0.04 0.03 82 1015.6
20190119053017 38 126 0.0 2.0 0.00 0.04 0.03 82 1015.5
20190119051536 38 84 0.0 0.0 0.00 0.04 0.03 82 1015.4
20190119050012 38 84 0.0 0.0 0.00 0.04 0.03 82 1015.5
20190119044519 38 84 0.0 0.0 0.00 0.04 0.03 82 1015.5
20190119043013 38 84 0.0 0.0 0.00 0.04 0.03 81 1015.5
20190119041509 38 84 0.0 0.0 0.00 0.04 0.03 82 1015.5
20190119040007 38 84 0.0 0.0 0.00 0.04 0.03 82 1015.5
20190119034532 38 83 0.0 0.0 0.00 0.04 0.03 83 1015.5
20190119033011 38 67 0.0 0.0 0.00 0.04 0.03 82 1015.5
20190119031505 39 67 0.0 0.0 0.00 0.04 0.03 82 1015.6
20190119030129 39 67 0.0 0.0 0.00 0.04 0.03 82 1015.7
20190119024744 39 67 0.0 0.0 0.00 0.04 0.03 81 1015.8
20190119023232 38 78 0.0 0.0 0.00 0.04 0.03 82 1015.9
20190119021600 38 81 0.0 0.0 0.00 0.04 0.03 84 1016.1
20190119020329 38 103 0.0 0.0 0.00 0.04 0.03 86 1016.2
20190119014713 38 327 0.0 0.0 0.00 0.04 0.03 88 1016.2
20190119013147 38 340 0.0 0.0 0.00 0.04 0.03 89 1016.1
20190119011654 39 340 0.0 0.0 0.00 0.04 0.03 88 1016.0
20190119010140 39 340 0.0 0.0 0.00 0.04 0.03 88 1016.0
20190119004743 39 5 0.0 0.0 0.02 0.04 0.03 87 1016.1
20190118230106 42 76 0.0 0.0 0.01 0.01 0.00 78 1016.1
20190118224622 42 88 0.0 0.0 0.01 0.01 0.01 78 1016.1
20190118223112 42 74 0.0 1.0 0.00 0.00 0.00 77 1015.8
20190118221627 42 84 0.0 2.0 0.00 0.00 0.00 75 1015.6
20190118220034 42 86 0.0 1.0 0.00 0.00 0.00 75 1015.5
20190118214609 42 126 0.0 1.0 0.00 0.00 0.00 75 1015.4
20190118213130 42 96 0.0 4.0 0.00 0.00 0.00 74 1015.3
20190118211536 42 136 0.0 1.0 0.00 0.00 0.00 73 1015.2
20190118210035 42 105 0.0 1.0 0.00 0.00 0.00 73 1015.1
20190118204553 42 82 0.0 1.0 0.00 0.00 0.00 72 1014.8
20190118203048 42 89 0.0 1.0 0.00 0.00 0.00 71 1014.8
20190118201525 42 171 0.0 2.0 0.00 0.00 0.00 71 1014.7
20190118200022 42 155 0.0 5.0 0.00 0.00 0.00 70 1014.5
20190118194540 42 147 0.0 7.0 0.00 0.00 0.00 71 1014.4
20190118193051 42 134 0.0 12.0 0.00 0.00 0.00 69 1014.3
20190118191554 42 157 0.0 12.0 0.00 0.00 0.00 68 1014.1
20190118190107 43 109 2.0 13.0 0.00 0.00 0.00 63 1014.0
20190118184522 43 174 3.0 13.0 0.00 0.00 0.00 61 1013.8
20190118183010 42 217 0.0 1.0 0.00 0.00 0.00 57 1013.7
20190118181507 42 150 0.0 0.0 0.00 0.00 0.00 51 1013.5
20190118180012 42 264 0.0 1.0 0.00 0.00 0.00 46 1013.1
20190118174714 42 350 0.0 0.0 0.00 0.00 0.00 46 1012.9
20190118173251 42 96 0.0 0.0 0.00 0.00 0.00 46 1012.8
20190118171624 43 96 0.0 0.0 0.00 0.00 0.00 43 1012.6
20190118170123 43 96 0.0 0.0 0.00 0.00 0.00 43 1012.5
20190118164623 44 96 0.0 0.0 0.00 0.00 0.00 42 1012.3
20190118163214 45 96 0.0 0.0 0.00 0.00 0.00 42 1012.1
20190118161633 46 87 0.0 1.0 0.00 0.00 0.00 39 1012.1
20190118160148 47 82 0.0 1.0 0.00 0.00 0.00 37 1011.9
20190118154620 47 115 0.0 1.0 0.00 0.00 0.00 37 1011.8
20190118153117 47 123 0.0 1.0 0.00 0.00 0.00 36 1011.6
20190118150137 48 148 0.0 0.0 0.00 0.00 0.00 35 1011.5
20190118144712 48 157 0.0 1.0 0.00 0.00 0.00 33 1011.3
20190118143127 49 150 0.0 1.0 0.00 0.00 0.00 31 1011.3
20190118141606 49 165 0.0 2.0 0.00 0.00 0.00 30 1011.2